User: anonymous   Login
Location: Oshawa
(43.9000°N, 78.8670°W)
Time: 17:36:01
(UTC-05:00)
Language:

Cosmos 1500 - Orbit

View from above orbital plane
View from above orbital plane
View from above satellite
View from above satellite

Ground track
Ground track

The orbit data is extracted from the following two-line orbital elements,

1 14372U 83099A   14352.52054538  .00007706  00000-0  43402-3 0  7122
2 14372 082.5140 162.3342 0017953 012.8966 048.9822 15.12936775699684
Epoch (UTC): 18 December 2014 12:29:35
Eccentricity: 0.0017953
inclination: 82.5140°
perigee height: 515 km
apogee height: 539 km
right ascension of ascending node: 162.3342°
argument of perigee: 12.8966°
revolutions per day: 15.12936775
mean anomaly at epoch: 48.9822°
orbit number at epoch: 69968

The dashed part of the orbit path shows where the satellite is in the earth's shadow,  

DLR